• In Österreich
  • Länderverzeichnis
  • Für 7 Tage
  • Wassertemperatur
  • Satellitenkarten
  • Wetterkarte
  • News
  • Widgets
  • user-avatar
    Anmelden

    Stündliche Wetter Albena

    Heute, 25 Februar, Sonntag

    Zeit Temperatur Niederschläge Wind Luftdruck Luftfeuchtigkeit
    00:00 -5°C° 0,1 mm 8 m/S 744 mmHg 89%
    01:00 -6°C° 0,1 mm 8 m/S 744 mmHg 88%
    02:00 -6°C° 0 mm 7 m/S 744 mmHg 90%
    03:00 -7°C° 0 mm 8 m/S 744 mmHg 89%
    04:00 -8°C° 0 mm 8 m/S 744 mmHg 88%
    05:00 -9°C° 0 mm 9 m/S 745 mmHg 87%
    06:00 -10°C° 0 mm 8 m/S 745 mmHg 85%
    07:00 -10°C° 0 mm 8 m/S 745 mmHg 83%
    08:00 -9°C° 0 mm 7 m/S 746 mmHg 82%
    09:00 -8°C° 0 mm 7 m/S 746 mmHg 80%
    10:00 -8°C° 0 mm 7 m/S 746 mmHg 78%
    11:00 -6°C° 0 mm 6 m/S 747 mmHg 76%
    12:00 -5°C° 0 mm 6 m/S 747 mmHg 76%
    13:00 -4°C° 0 mm 6 m/S 747 mmHg 76%
    14:00 -4°C° 0 mm 6 m/S 747 mmHg 76%
    15:00 -4°C° 0,1 mm 6 m/S 747 mmHg 78%
    16:00 -4°C° 0,1 mm 6 m/S 747 mmHg 80%
    17:00 -4°C° 0,1 mm 6 m/S 747 mmHg 81%
    18:00 -4°C° 0,2 mm 6 m/S 747 mmHg 83%
    19:00 -4°C° 0,2 mm 7 m/S 747 mmHg 85%
    20:00 -4°C° 0,2 mm 7 m/S 747 mmHg 87%
    21:00 -4°C° 0,3 mm 7 m/S 747 mmHg 87%
    22:00 -6°C° 0,3 mm 8 m/S 747 mmHg 87%
    23:00 -6°C° 0,3 mm 8 m/S 747 mmHg 87%

    Morgen, 26 Februar, Montag

    Zeit Temperatur Niederschläge Wind Luftdruck Luftfeuchtigkeit
    00:00 -6°C° 0,2 mm 8 m/S 747 mmHg 86%
    01:00 -6°C° 0,2 mm 9 m/S 746 mmHg 86%
    02:00 -6°C° 0,2 mm 9 m/S 746 mmHg 85%
    03:00 -6°C° 0,4 mm 9 m/S 746 mmHg 86%
    04:00 -6°C° 0,4 mm 9 m/S 745 mmHg 87%
    05:00 -6°C° 0,4 mm 9 m/S 745 mmHg 89%
    06:00 -7°C° 0,6 mm 10 m/S 745 mmHg 89%
    07:00 -7°C° 0,6 mm 11 m/S 745 mmHg 89%
    08:00 -7°C° 0,6 mm 11 m/S 744 mmHg 90%
    09:00 -7°C° 0,7 mm 12 m/S 744 mmHg 90%
    10:00 -7°C° 0,7 mm 12 m/S 744 mmHg 91%
    11:00 -6°C° 0,7 mm 12 m/S 744 mmHg 91%
    12:00 -6°C° 0,6 mm 12 m/S 743 mmHg 91%
    13:00 -6°C° 0,6 mm 13 m/S 742 mmHg 90%
    14:00 -6°C° 0,6 mm 13 m/S 741 mmHg 90%
    15:00 -6°C° 0,8 mm 14 m/S 741 mmHg 90%
    16:00 -8°C° 0,8 mm 14 m/S 740 mmHg 90%
    17:00 -8°C° 0,8 mm 14 m/S 740 mmHg 90%
    18:00 -8°C° 1,1 mm 14 m/S 739 mmHg 91%
    19:00 -8°C° 1,1 mm 14 m/S 739 mmHg 91%
    20:00 -8°C° 1,1 mm 14 m/S 739 mmHg 91%
    21:00 -8°C° 2 mm 14 m/S 738 mmHg 92%
    22:00 -7°C° 2 mm 13 m/S 738 mmHg 93%
    23:00 -7°C° 2 mm 12 m/S 738 mmHg 94%

    übermorgen, 27 Februar, Dienstag

    Zeit Temperatur Niederschläge Wind Luftdruck Luftfeuchtigkeit
    00:00 -9°C° 1 mm 13 m/S 738 mmHg 93%
    01:00 -9°C° 1 mm 13 m/S 738 mmHg 92%
    02:00 -9°C° 1 mm 13 m/S 738 mmHg 91%
    03:00 -9°C° 0,3 mm 13 m/S 738 mmHg 91%
    04:00 -10°C° 0,3 mm 13 m/S 737 mmHg 91%
    05:00 -10°C° 0,3 mm 13 m/S 737 mmHg 91%
    06:00 -10°C° 0,4 mm 12 m/S 738 mmHg 91%
    07:00 -11°C° 0,4 mm 11 m/S 738 mmHg 91%
    08:00 -10°C° 0,4 mm 10 m/S 739 mmHg 91%
    09:00 -10°C° 0,2 mm 9 m/S 739 mmHg 91%
    10:00 -10°C° 0,2 mm 9 m/S 740 mmHg 92%
    11:00 -10°C° 0,2 mm 8 m/S 741 mmHg 92%
    12:00 -10°C° 0,1 mm 8 m/S 741 mmHg 92%
    13:00 -9°C° 0,1 mm 7 m/S 742 mmHg 92%
    14:00 -9°C° 0,1 mm 6 m/S 742 mmHg 91%
    15:00 -9°C° 0,1 mm 6 m/S 742 mmHg 91%
    16:00 -9°C° 0,1 mm 6 m/S 743 mmHg 91%
    17:00 -8°C° 0,1 mm 5 m/S 743 mmHg 92%
    18:00 -10°C° 0,1 mm 5 m/S 744 mmHg 92%
    19:00 -10°C° 0,1 mm 4 m/S 744 mmHg 93%
    20:00 -10°C° 0,1 mm 4 m/S 745 mmHg 94%
    21:00 -11°C° 0 mm 4 m/S 745 mmHg 94%
    22:00 -12°C° 0 mm 4 m/S 746 mmHg 95%
    23:00 -14°C° 0 mm 4 m/S 746 mmHg 95%

    28 Februar, Mittwoch

    Zeit Temperatur Niederschläge Wind Luftdruck Luftfeuchtigkeit
    00:00 -14°C° 0 mm 4 m/S 746 mmHg 95%
    01:00 -14°C° 0 mm 4 m/S 746 mmHg 94%
    02:00 -15°C° 0 mm 4 m/S 747 mmHg 94%
    03:00 -15°C° 0 mm 4 m/S 746 mmHg 94%
    04:00 -16°C° 0 mm 4 m/S 746 mmHg 94%
    05:00 -16°C° 0 mm 4 m/S 746 mmHg 93%
    06:00 -15°C° 0,4 mm 5 m/S 746 mmHg 94%
    07:00 -14°C° 0,4 mm 5 m/S 746 mmHg 95%
    08:00 -14°C° 0,4 mm 5 m/S 746 mmHg 95%
    09:00 -14°C° 0,8 mm 7 m/S 746 mmHg 95%
    10:00 -13°C° 0,8 mm 8 m/S 745 mmHg 96%
    11:00 -12°C° 0,8 mm 9 m/S 744 mmHg 96%
    12:00 -12°C° 1,8 mm 9 m/S 744 mmHg 96%
    13:00 -13°C° 1,8 mm 10 m/S 743 mmHg 96%
    14:00 -13°C° 1,8 mm 10 m/S 743 mmHg 96%
    15:00 -13°C° 1,4 mm 10 m/S 742 mmHg 96%
    16:00 -13°C° 1,4 mm 10 m/S 742 mmHg 95%
    17:00 -12°C° 1,4 mm 10 m/S 742 mmHg 95%
    18:00 -13°C° 0,7 mm 10 m/S 743 mmHg 94%
    19:00 -13°C° 0,7 mm 10 m/S 743 mmHg 94%
    20:00 -13°C° 0,7 mm 10 m/S 744 mmHg 93%
    21:00 -13°C° 0,4 mm 10 m/S 744 mmHg 93%
    22:00 -13°C° 0,4 mm 11 m/S 745 mmHg 92%
    23:00 -14°C° 0,4 mm 11 m/S 745 mmHg 92%

    1 März, Donnerstag

    Zeit Temperatur Niederschläge Wind Luftdruck Luftfeuchtigkeit
    00:00 -14°C° 0,2 mm 11 m/S 746 mmHg 92%
    01:00 -14°C° 0,2 mm 10 m/S 746 mmHg 91%
    02:00 -15°C° 0,2 mm 10 m/S 747 mmHg 91%
    03:00 -15°C° 0,1 mm 9 m/S 748 mmHg 90%
    04:00 -15°C° 0,1 mm 9 m/S 748 mmHg 90%
    05:00 -16°C° 0,1 mm 8 m/S 749 mmHg 89%
    06:00 -16°C° 0 mm 8 m/S 749 mmHg 90%
    07:00 -15°C° 0 mm 7 m/S 749 mmHg 90%
    08:00 -15°C° 0 mm 7 m/S 750 mmHg 90%
    09:00 -12°C° 0 mm 6 m/S 750 mmHg 90%
    10:00 -11°C° 0 mm 6 m/S 750 mmHg 89%
    11:00 -10°C° 0 mm 6 m/S 750 mmHg 89%
    12:00 -8°C° 0 mm 5 m/S 750 mmHg 88%
    13:00 -7°C° 0 mm 5 m/S 750 mmHg 87%
    14:00 -5°C° 0 mm 4 m/S 749 mmHg 86%
    15:00 -5°C° 0 mm 3 m/S 749 mmHg 87%
    16:00 -6°C° 0 mm 3 m/S 749 mmHg 87%
    17:00 -5°C° 0 mm 2 m/S 749 mmHg 88%
    18:00 -7°C° 0 mm 2 m/S 750 mmHg 88%
    19:00 -7°C° 0 mm 1 m/S 750 mmHg 89%
    20:00 -9°C° 0 mm 1 m/S 750 mmHg 89%
    21:00 -9°C° 0 mm 1 m/S 750 mmHg 89%
    22:00 -10°C° 0 mm 1 m/S 750 mmHg 88%
    23:00 -10°C° 0 mm 1 m/S 750 mmHg 88%

    2 März, Freitag

    Zeit Temperatur Niederschläge Wind Luftdruck Luftfeuchtigkeit
    00:00 -10°C° 0 mm 1 m/S 750 mmHg 88%
    01:00 -10°C° 0 mm 1 m/S 749 mmHg 88%
    02:00 -10°C° 0 mm 1 m/S 749 mmHg 88%
    03:00 -9°C° 0 mm 1 m/S 749 mmHg 89%
    04:00 -9°C° 0 mm 1 m/S 749 mmHg 90%
    05:00 -8°C° 0 mm 1 m/S 748 mmHg 91%
    06:00 -7°C° 0 mm 1 m/S 748 mmHg 92%
    07:00 -7°C° 0 mm 2 m/S 748 mmHg 93%
    08:00 -6°C° 0 mm 2 m/S 748 mmHg 94%
    09:00 -5°C° 0 mm 2 m/S 748 mmHg 95%
    10:00 -3°C° 0 mm 2 m/S 747 mmHg 95%
    11:00 -1°C° 0 mm 3 m/S 747 mmHg 96%
    12:00 -1°C° 0 mm 3 m/S 747 mmHg 97%
    13:00 0°C° 0 mm 3 m/S 746 mmHg 97%
    14:00 0°C° 0 mm 3 m/S 745 mmHg 98%
    15:00 -1°C° 0 mm 4 m/S 745 mmHg 97%
    16:00 -1°C° 0 mm 4 m/S 745 mmHg 97%
    17:00 -1°C° 0 mm 4 m/S 744 mmHg 96%
    18:00 -1°C° 0 mm 4 m/S 744 mmHg 95%
    19:00 -1°C° 0 mm 4 m/S 744 mmHg 94%
    20:00 -1°C° 0 mm 5 m/S 744 mmHg 92%
    21:00 -1°C° 0,1 mm 4 m/S 744 mmHg 93%
    22:00 -1°C° 0,1 mm 4 m/S 743 mmHg 93%
    23:00 -1°C° 0,1 mm 4 m/S 743 mmHg 94%
    Mehr zeigen